カタログに戻る

STARLINK-2752

運用中通信VLEO
NORAD 48692·PAYLOAD·🇺🇸 United States

打ち上げ May 26, 2021 から Cape Canaveral Space Force Station

Loading…

次のパス (今後24時間)

TLE

最新Source: CelesTrak SupGP

元期: Sep 15, 2026, 01:41 UTC

1 48692C 21044BG  26258.07062500  .00015208  00000+0  48875-3 0  2581
2 48692  53.1566 273.7647 0001391  97.8171 222.7395 15.31714838    12

AllMySatでSTARLINK-2752をリアルタイム追跡

Download on the App Store